OBJECT M, 62620

Orbit data source: Space-Track

You're viewing an Uncataloged Satellite

Recently launched and/or uncataloged satellites may have evolving metadata. Metadata may include but not limited to: Owner, Maufacturer, Bus, Motor, and Mission.

OBJECT M, 62620 is a satellite in SSO that was launched on Tue, 14 Jan 2025 UTC via an FALCON 9 launch vehicle from the Air Force Western Test Range (AFWTR). Unknown objects in Earth's orbit typically refer to objects detected orbiting the Earth but have not yet been identified or cataloged. These objects could be anything from previously untracked satellites, spent rocket stages, debris from satellite collisions, or even natural meteoroids temporarily captured by Earth's gravity.

Loading next visibility...
Identifier
62620, 2025-009M
Orbit
SSO
Country
Flag of TBDTBD
Related business
None
Manufacturer
Unknown
Mission
Operational Defense Imaging
Bus & Motor
Unknown
Mass
Unknown
Launch date (UTC)
2025-01-14 (1 year ago)
Launch vehicle
FALCON 9
Launch site
Air Force Western Test Range (AFWTR)
Object type
Unknown
Shape & HBR
Box + 2 Pan, 0.2 m
Radar Cross Section
0.121 m², Medium (>0.1 m² and < 1m²)

Expand to show TLE details & history
Last TLE update: 8 hours ago

TLE from 8 hours ago
0 OBJECT M
1 62620U 25009M   26122.18374076  .00087776  00000-0  13280-2 0  9992
2 62620  97.3934 210.4294 0003364 121.5228 238.6355 15.54377387 72294
Epoch: 2026-05-02T04:24Z
TLE epoch observation values (Epoch: 2026-05-02T04:24:35.201Z)
Latitude
-0.00001°
Longitude
-75.82256°
Altitude
408.289 km
Speed
7.665 km/s
True Right ascension
14h 01m 43s
True Declination
0° 00' 00"
Sunlit
Object was in full shadow at epoch
Visualization orbit readout
Latitude
Unknown
Longitude
Unknown
Altitude
Unknown
Speed
Unknown
Apparent Right ascension
Unknown
Apparent Declination
Unknown
Sunlit
N/A
Visualization observer readout
Local Sidereal Time
19:53:24
Azimuth
Unknown
Elevation
Unknown
Doppler factor
Unknown
Orbital elements
Apogee altitude
403.163 km
Perigee altitude
398.602 km
Semi-major axis
6,779.02 km
Eccentricity
0.00034
Inclination
97.3934°
RAAN
210.4294°
Arg. of periapsis
121.5228°
True anomaly
238.60259°
Mean anomaly
238.6355°
Eccentric anomaly
238.61905°
Mean motion
3.8886 °/min
Orbital period
92.58 mins
BSTAR
0.001328
Loading maneuver chart data...
Computing Atmospheric mass density...
Loading historical data...
Loading historical data...
Loading historical data...
Loading historical data...
Loading historical data...
Loading historical data...
Loading historical data...

Documentation

Showing up to 5 results
|